Time,TemperatureF,DewpointF,PressureIn,WindDirection,WindDirectionDegrees,WindSpeedMPH,WindSpeedGustMPH,Humidity,HourlyPrecipIn,Conditions,Clouds,dailyrainin,SoftwareType,DateUTC
2013-03-11 00:03:00,37.2,16.0,30.09,NE,45,0.0,1.0,43,0.00,,,0.00,weatherlink.com 1.10,2013-03-11 06:03:00,
2013-03-11 00:18:00,36.4,16.0,30.09,ENE,75,0.0,2.0,44,0.00,,,0.00,weatherlink.com 1.10,2013-03-11 06:18:00,
2013-03-11 00:33:00,35.5,16.0,30.11,South,186,1.0,3.0,46,0.00,,,0.00,weatherlink.com 1.10,2013-03-11 06:33:00,
2013-03-11 00:48:00,35.9,16.0,30.11,South,188,0.0,3.0,45,0.00,,,0.00,weatherlink.com 1.10,2013-03-11 06:48:00,
2013-03-11 01:03:00,35.8,17.0,30.11,South,188,0.0,0.0,46,0.00,,,0.00,weatherlink.com 1.10,2013-03-11 07:03:00,
2013-03-11 01:18:00,34.6,17.0,30.12,SW,231,0.0,2.0,49,0.00,,,0.00,weatherlink.com 1.10,2013-03-11 07:18:00,
2013-03-11 01:33:00,34.7,17.0,30.12,WSW,243,0.0,1.0,49,0.00,,,0.00,weatherlink.com 1.10,2013-03-11 07:33:00,
2013-03-11 01:48:00,34.0,17.0,30.13,North,5,0.0,3.0,50,0.00,,,0.00,weatherlink.com 1.10,2013-03-11 07:48:00,
2013-03-11 02:03:00,34.2,17.0,30.13,North,5,0.0,1.0,50,0.00,,,0.00,weatherlink.com 1.10,2013-03-11 08:03:00,
2013-03-11 02:18:00,33.8,17.0,30.13,North,5,0.0,1.0,51,0.00,,,0.00,weatherlink.com 1.10,2013-03-11 08:18:00,
2013-03-11 02:33:00,34.6,18.0,30.13,North,5,1.0,4.0,50,0.00,,,0.00,weatherlink.com 1.10,2013-03-11 08:33:00,
2013-03-11 02:48:00,35.6,18.0,30.12,NNE,22,0.0,3.0,49,0.00,,,0.00,weatherlink.com 1.10,2013-03-11 08:48:00,
2013-03-11 03:03:00,36.1,18.0,30.11,NNW,342,2.0,4.0,48,0.00,,,0.00,weatherlink.com 1.10,2013-03-11 09:03:00,
2013-03-11 03:18:00,36.6,18.0,30.11,North,355,2.0,5.0,47,0.00,,,0.00,weatherlink.com 1.10,2013-03-11 09:18:00,
2013-03-11 03:33:00,36.9,18.0,30.10,NNE,27,5.0,8.0,47,0.00,,,0.00,weatherlink.com 1.10,2013-03-11 09:33:00,
2013-03-11 03:49:00,37.4,18.0,30.09,North,360,4.0,8.0,46,0.00,,,0.00,weatherlink.com 1.10,2013-03-11 09:49:00,
2013-03-11 04:03:00,37.0,18.0,30.09,North,9,0.0,3.0,46,0.00,,,0.00,weatherlink.com 1.10,2013-03-11 10:03:00,
2013-03-11 04:19:00,36.5,18.0,30.09,North,351,0.0,1.0,47,0.00,,,0.00,weatherlink.com 1.10,2013-03-11 10:19:00,
2013-03-11 04:34:00,36.0,18.0,30.07,NNE,14,2.0,5.0,48,0.00,,,0.00,weatherlink.com 1.10,2013-03-11 10:34:00,
2013-03-11 04:49:00,37.4,18.0,30.07,North,350,3.0,11.0,45,0.00,,,0.00,weatherlink.com 1.10,2013-03-11 10:49:00,
2013-03-11 05:04:00,37.8,18.0,30.07,NNW,344,4.0,10.0,44,0.00,,,0.00,weatherlink.com 1.10,2013-03-11 11:04:00,
2013-03-11 05:19:00,37.5,17.0,30.07,NNE,15,5.0,9.0,44,0.00,,,0.00,weatherlink.com 1.10,2013-03-11 11:19:00,
2013-03-11 05:33:00,37.2,17.0,30.07,NNE,12,2.0,7.0,44,0.00,,,0.00,weatherlink.com 1.10,2013-03-11 11:33:00,
2013-03-11 05:49:00,36.8,17.0,30.07,NNW,345,2.0,7.0,45,0.00,,,0.00,weatherlink.com 1.10,2013-03-11 11:49:00,
2013-03-11 06:04:00,36.6,17.0,30.08,North,355,3.0,7.0,46,0.00,,,0.00,weatherlink.com 1.10,2013-03-11 12:04:00,
2013-03-11 06:19:00,36.6,17.0,30.08,NNW,347,0.0,5.0,45,0.00,,,0.00,weatherlink.com 1.10,2013-03-11 12:19:00,
2013-03-11 06:34:00,36.3,17.0,30.08,NNW,340,0.0,5.0,46,0.00,,,0.00,weatherlink.com 1.10,2013-03-11 12:34:00,
2013-03-11 06:49:00,35.3,18.0,30.08,NNW,337,0.0,3.0,49,0.00,,,0.00,weatherlink.com 1.10,2013-03-11 12:49:00,
2013-03-11 07:04:00,34.5,18.0,30.08,NNW,336,2.0,4.0,51,0.00,,,0.00,weatherlink.com 1.10,2013-03-11 13:04:00,
2013-03-11 07:19:00,33.2,18.0,30.07,NNW,336,0.0,2.0,54,0.00,,,0.00,weatherlink.com 1.10,2013-03-11 13:19:00,
2013-03-11 07:34:00,32.4,18.0,30.08,NNW,336,0.0,2.0,56,0.00,,,0.00,weatherlink.com 1.10,2013-03-11 13:34:00,
2013-03-11 07:49:00,32.0,19.0,30.08,NNW,336,0.0,3.0,58,0.00,,,0.00,weatherlink.com 1.10,2013-03-11 13:49:00,
2013-03-11 08:04:00,33.3,19.0,30.09,NNW,335,0.0,3.0,55,0.00,,,0.00,weatherlink.com 1.10,2013-03-11 14:04:00,
2013-03-11 08:19:00,34.3,19.0,30.10,SSW,206,2.0,4.0,54,0.00,,,0.00,weatherlink.com 1.10,2013-03-11 14:19:00,
2013-03-11 08:34:00,33.7,19.0,30.11,SSW,193,2.0,4.0,56,0.00,,,0.00,weatherlink.com 1.10,2013-03-11 14:34:00,
2013-03-11 08:49:00,34.1,19.0,30.12,SSW,196,0.0,4.0,55,0.00,,,0.00,weatherlink.com 1.10,2013-03-11 14:49:00,
2013-03-11 09:04:00,35.5,20.0,30.12,SSW,195,0.0,0.0,54,0.00,,,0.00,weatherlink.com 1.10,2013-03-11 15:04:00,
2013-03-11 09:19:00,37.7,20.0,30.12,SSW,194,0.0,0.0,50,0.00,,,0.00,weatherlink.com 1.10,2013-03-11 15:19:00,
2013-03-11 09:34:00,39.4,21.0,30.12,SSW,194,0.0,0.0,47,0.00,,,0.00,weatherlink.com 1.10,2013-03-11 15:34:00,
2013-03-11 09:49:00,41.8,20.0,30.13,SSW,194,0.0,2.0,41,0.00,,,0.00,weatherlink.com 1.10,2013-03-11 15:49:00,
2013-03-11 10:03:00,43.8,18.0,30.13,SSW,194,1.0,4.0,36,0.00,,,0.00,weatherlink.com 1.10,2013-03-11 16:03:00,
2013-03-11 10:18:00,45.3,18.0,30.13,SSW,200,0.0,2.0,33,0.00,,,0.00,weatherlink.com 1.10,2013-03-11 16:18:00,
2013-03-11 10:33:00,45.8,17.0,30.12,SSW,202,4.0,5.0,32,0.00,,,0.00,weatherlink.com 1.10,2013-03-11 16:33:00,
2013-03-11 10:48:00,45.7,16.0,30.12,SW,222,1.0,8.0,31,0.00,,,0.00,weatherlink.com 1.10,2013-03-11 16:48:00,
2013-03-11 11:03:00,45.7,18.0,30.11,WSW,241,8.0,8.0,33,0.00,,,0.00,weatherlink.com 1.10,2013-03-11 17:03:00,
2013-03-11 11:18:00,46.6,17.0,30.11,SSW,200,3.0,8.0,31,0.00,,,0.00,weatherlink.com 1.10,2013-03-11 17:18:00,
2013-03-11 11:34:00,47.7,17.0,30.11,West,265,5.0,6.0,29,0.00,,,0.00,weatherlink.com 1.10,2013-03-11 17:34:00,
2013-03-11 11:49:00,48.7,18.0,30.11,North,9,1.0,7.0,29,0.00,,,0.00,weatherlink.com 1.10,2013-03-11 17:49:00,
2013-03-11 12:04:00,49.2,17.0,30.09,NNE,21,0.0,3.0,28,0.00,,,0.00,weatherlink.com 1.10,2013-03-11 18:04:00,
2013-03-11 12:19:00,50.1,17.0,30.08,West,275,4.0,8.0,27,0.00,,,0.00,weatherlink.com 1.10,2013-03-11 18:19:00,
2013-03-11 12:34:00,50.3,17.0,30.07,WSW,244,7.0,10.0,27,0.00,,,0.00,weatherlink.com 1.10,2013-03-11 18:34:00,
2013-03-11 12:49:00,50.9,17.0,30.06,WSW,249,7.0,8.0,26,0.00,,,0.00,weatherlink.com 1.10,2013-03-11 18:49:00,
2013-03-11 13:04:00,51.6,18.0,30.05,SSW,202,0.0,6.0,27,0.00,,,0.00,weatherlink.com 1.10,2013-03-11 19:04:00,
2013-03-11 13:19:00,52.9,18.0,30.05,South,170,3.0,7.0,25,0.00,,,0.00,weatherlink.com 1.10,2013-03-11 19:19:00,
2013-03-11 13:34:00,54.0,18.0,30.04,SSW,198,3.0,3.0,24,0.00,,,0.00,weatherlink.com 1.10,2013-03-11 19:34:00,
2013-03-11 13:49:00,55.0,18.0,30.02,SE,140,1.0,9.0,23,0.00,,,0.00,weatherlink.com 1.10,2013-03-11 19:49:00,
2013-03-11 14:04:00,55.8,18.0,30.01,SSE,160,3.0,8.0,23,0.00,,,0.00,weatherlink.com 1.10,2013-03-11 20:04:00,
2013-03-11 14:19:00,56.7,18.0,29.99,SW,217,0.0,7.0,22,0.00,,,0.00,weatherlink.com 1.10,2013-03-11 20:19:00,
2013-03-11 14:34:00,57.1,17.0,29.98,SSW,199,4.0,7.0,21,0.00,,,0.00,weatherlink.com 1.10,2013-03-11 20:34:00,
2013-03-11 14:49:00,58.6,16.0,29.97,WSW,244,6.0,7.0,19,0.00,,,0.00,weatherlink.com 1.10,2013-03-11 20:49:00,
2013-03-11 15:04:00,59.0,17.0,29.96,SW,215,5.0,11.0,19,0.00,,,0.00,weatherlink.com 1.10,2013-03-11 21:04:00,
2013-03-11 15:19:00,59.9,15.0,29.96,NW,304,4.0,13.0,17,0.00,,,0.00,weatherlink.com 1.10,2013-03-11 21:19:00,
2013-03-11 15:34:00,60.0,15.0,29.95,NW,304,12.0,15.0,17,0.00,,,0.00,weatherlink.com 1.10,2013-03-11 21:34:00,
2013-03-11 15:49:00,60.5,14.0,29.94,WNW,284,2.0,15.0,16,0.00,,,0.00,weatherlink.com 1.10,2013-03-11 21:49:00,
2013-03-11 16:04:00,61.1,11.0,29.93,WSW,243,8.0,15.0,14,0.00,,,0.00,weatherlink.com 1.10,2013-03-11 22:04:00,
2013-03-11 16:19:00,62.0,12.0,29.93,West,264,13.0,13.0,14,0.00,,,0.00,weatherlink.com 1.10,2013-03-11 22:19:00,
2013-03-11 16:34:00,62.2,11.0,29.92,West,259,0.0,13.0,13,0.00,,,0.00,weatherlink.com 1.10,2013-03-11 22:34:00,
2013-03-11 16:50:00,62.7,9.0,29.91,WNW,301,5.0,15.0,12,0.00,,,0.00,weatherlink.com 1.10,2013-03-11 22:50:00,
2013-03-11 17:05:00,62.7,9.0,29.91,WNW,290,3.0,14.0,12,0.00,,,0.00,weatherlink.com 1.10,2013-03-11 23:05:00,
2013-03-11 17:20:00,62.6,9.0,29.90,North,350,5.0,16.0,12,0.00,,,0.00,weatherlink.com 1.10,2013-03-11 23:20:00,
2013-03-11 17:35:00,62.6,7.0,29.90,NW,306,12.0,13.0,11,0.00,,,0.00,weatherlink.com 1.10,2013-03-11 23:35:00,
2013-03-11 17:50:00,62.3,5.0,29.90,North,355,9.0,16.0,10,0.00,,,0.00,weatherlink.com 1.10,2013-03-11 23:50:00,
2013-03-11 18:05:00,62.1,5.0,29.89,NW,306,6.0,13.0,10,0.00,,,0.00,weatherlink.com 1.10,2013-03-12 00:05:00,
2013-03-11 18:20:00,61.5,4.0,29.90,NW,307,3.0,14.0,10,0.00,,,0.00,weatherlink.com 1.10,2013-03-12 00:20:00,
2013-03-11 18:35:00,60.8,6.0,29.90,NW,316,6.0,15.0,11,0.00,,,0.00,weatherlink.com 1.10,2013-03-12 00:35:00,
2013-03-11 18:50:00,60.2,5.0,29.90,NW,313,5.0,13.0,11,0.00,,,0.00,weatherlink.com 1.10,2013-03-12 00:50:00,
2013-03-11 19:05:00,59.3,6.0,29.90,NNW,335,2.0,12.0,12,0.00,,,0.00,weatherlink.com 1.10,2013-03-12 01:05:00,
2013-03-11 19:20:00,58.5,6.0,29.90,North,351,3.0,14.0,12,0.00,,,0.00,weatherlink.com 1.10,2013-03-12 01:20:00,
2013-03-11 19:35:00,57.6,8.0,29.90,NW,310,6.0,16.0,14,0.00,,,0.00,weatherlink.com 1.10,2013-03-12 01:35:00,
2013-03-11 19:50:00,56.8,9.0,29.91,NNW,336,3.0,11.0,15,0.00,,,0.00,weatherlink.com 1.10,2013-03-12 01:50:00,
2013-03-11 20:05:00,56.3,9.0,29.91,NNW,342,9.0,14.0,15,0.00,,,0.00,weatherlink.com 1.10,2013-03-12 02:05:00,
2013-03-11 20:20:00,55.5,10.0,29.91,NNW,344,6.0,11.0,16,0.00,,,0.00,weatherlink.com 1.10,2013-03-12 02:20:00,
2013-03-11 20:35:00,54.7,10.0,29.92,North,9,3.0,9.0,17,0.00,,,0.00,weatherlink.com 1.10,2013-03-12 02:35:00,
2013-03-11 20:50:00,54.5,12.0,29.92,NNW,340,6.0,14.0,18,0.00,,,0.00,weatherlink.com 1.10,2013-03-12 02:50:00,
2013-03-11 21:05:00,53.8,12.0,29.93,NNW,335,2.0,11.0,19,0.00,,,0.00,weatherlink.com 1.10,2013-03-12 03:05:00,
2013-03-11 21:20:00,53.5,14.0,29.94,NNW,339,6.0,15.0,21,0.00,,,0.00,weatherlink.com 1.10,2013-03-12 03:20:00,
2013-03-11 21:35:00,52.9,16.0,29.95,North,351,8.0,16.0,23,0.00,,,0.00,weatherlink.com 1.10,2013-03-12 03:35:00,
2013-03-11 21:50:00,52.7,17.0,29.95,NNW,348,5.0,18.0,24,0.00,,,0.00,weatherlink.com 1.10,2013-03-12 03:50:00,
2013-03-11 22:05:00,52.1,17.0,29.95,NNW,346,6.0,16.0,25,0.00,,,0.00,weatherlink.com 1.10,2013-03-12 04:05:00,
2013-03-11 22:20:00,51.6,18.0,29.95,NNW,331,11.0,14.0,26,0.00,,,0.00,weatherlink.com 1.10,2013-03-12 04:20:00,
2013-03-11 22:35:00,51.2,19.0,29.96,NW,313,10.0,17.0,28,0.00,,,0.00,weatherlink.com 1.10,2013-03-12 04:35:00,
2013-03-11 22:50:00,50.2,19.0,29.96,NNE,12,12.0,16.0,29,0.00,,,0.00,weatherlink.com 1.10,2013-03-12 04:50:00,
2013-03-11 23:05:00,49.6,19.0,29.97,NNW,338,5.0,11.0,30,0.00,,,0.00,weatherlink.com 1.10,2013-03-12 05:05:00,
2013-03-11 23:20:00,49.7,19.0,29.96,NNW,329,8.0,14.0,30,0.00,,,0.00,weatherlink.com 1.10,2013-03-12 05:20:00,
2013-03-11 23:35:00,49.5,19.0,29.97,NW,310,10.0,15.0,30,0.00,,,0.00,weatherlink.com 1.10,2013-03-12 05:35:00,
2013-03-11 23:50:00,49.1,19.0,29.97,NNW,327,2.0,14.0,30,0.00,,,0.00,weatherlink.com 1.10,2013-03-12 05:50:00,